Flag for U.S.A. Weather past 2 weeks in Pasadena, Texas, U.S.A.

Now
86 °F

Passing clouds.


Feels Like: 89 °F
Forecast: 73 / 88 °F
Wind: 3 mph from East

Location: Houston / Ellington

Current Time: Sep 21, 2014 at 7:54:20 PM

Latest Report: Sep 21, 2014 at 6:50 PM


Visibility: 10 mi

Pressure: 29.98 "Hg

Humidity: 55%

Dew point: 68 °F

Location of PasadenaLocation

Historic Weather in Pasadena — Graph

°F

Pasadena temperature yesterday

Maximum temperature yesterday: 86 °F (at 3:50 PM)
Minimum temperature yesterday: 75 °F (at 4:50 AM)
Average temperature yesterday: 80 °F

Past Weeks' High & Low Weather Summary

 TemperatureHumidityPressure
High93 °F (Sep 10, 10:50 AM)100% (Sep 12, 7:50 PM)30.20 "Hg (Sep 12, 7:50 PM)
Low66 °F (Sep 14, 3:50 AM)52% (Sep 11, 1:50 PM)29.85 "Hg (Sep 10, 5:50 PM)
Average80 °F85%29.99 "Hg
* Reported Sep 6 5:50 PM — Sep 21 5:50 PM, Pasadena, Weather by CustomWeather, © 2014

Note: Actual official high and low records may vary slightly from our data, if they occured in-between our weather recording intervals... More about our weather records

Advertising

Pasadena weather history for previous 24 hours

 ConditionsComfort  
Time TempWeatherWind HumidityBarometerVisibility
5:50 PM
Sep 21
88 °FPassing clouds.8 mph52%29.98 "Hg10 mi
4:50 PM88 °FScattered clouds.9 mph52%29.98 "Hg10 mi
3:50 PM88 °FScattered clouds.7 mph55%30.00 "Hg10 mi
2:50 PM88 °FScattered clouds.10 mph52%30.01 "Hg10 mi
1:50 PM86 °FScattered clouds.8 mph62%30.04 "Hg10 mi
12:50 PM88 °FScattered clouds.10 mph59%30.06 "Hg10 mi
11:50 AM86 °FPassing clouds.10 mph62%30.07 "Hg10 mi
10:50 AM84 °FPassing clouds.9 mph74%30.06 "Hg10 mi
9:50 AM82 °FPassing clouds.7 mph74%30.05 "Hg10 mi
8:50 AM79 °FSunny.7 mph89%30.05 "Hg7 mi
7:50 AM77 °FClear.3 mph89%30.04 "Hg7 mi
6:50 AM75 °FPassing clouds.5 mph94%30.00 "Hg7 mi
2:50 AM79 °FPassing clouds.3 mph94%29.97 "Hg7 mi
1:50 AM79 °FPassing clouds.No wind94%29.97 "Hg7 mi
12:50 AM79 °FPassing clouds.3 mph94%29.97 "Hg10 mi
11:50 PM
Sep 20
79 °FClear.No wind89%29.97 "Hg10 mi
10:50 PM79 °FClear.No wind84%29.98 "Hg10 mi
9:50 PM79 °FClear.No wind84%29.96 "Hg10 mi
8:50 PM81 °FPassing clouds.No wind79%29.96 "Hg10 mi
7:50 PM81 °FPassing clouds.3 mph84%29.93 "Hg10 mi
Weather by CustomWeather, © 2014

See weather overviewHow to use our weather pages